This is the latest recevied weather packets stored in our database for station/object VE3TEJ. If no packets are shown the sender has not sent any weather packets the latest 1 day(s).
| Time | Temp. | Humidity | Pressure | Rain* | Wind** | Luminosity | Snow |
|---|---|---|---|---|---|---|---|
| 1777996448 | 14.44° C | 59% | 1004.8 hPa | 0 mm | 0.89 m/s, 284° | - | - |
| 1777996148 | 14.44° C | 58% | 1004.8 hPa | 0 mm | 0.89 m/s, 267° | - | - |
| 1777995847 | 13.89° C | 64% | 1004.6 hPa | 0 mm | 0.89 m/s, 292° | - | - |
| 1777995547 | 13.33° C | 63% | 1004.9 hPa | 0 mm | 0.45 m/s, 299° | - | - |
| 1777995248 | 12.78° C | 63% | 1005.1 hPa | 0 mm | 0.89 m/s, 281° | - | - |
| 1777994948 | 12.78° C | 63% | 1005.1 hPa | 0 mm | 0.45 m/s, 285° | - | - |
| 1777994647 | 13.33° C | 63% | 1004.8 hPa | 0 mm | 0.89 m/s, 309° | - | - |
| 1777994347 | 13.89° C | 63% | 1004.6 hPa | 0 mm | 0.89 m/s, 285° | - | - |
| 1777994049 | 13.89° C | 63% | 1004.5 hPa | 0 mm | 0.89 m/s, 265° | - | - |
| 1777993748 | 14.44° C | 63% | 1004.2 hPa | 0 mm | 0.89 m/s, 293° | - | - |
| 1777993448 | 14.44° C | 63% | 1003.7 hPa | 0 mm | 1.34 m/s, 281° | - | - |
| 1777993147 | 14.44° C | 63% | 1003.7 hPa | 0 mm | 0.89 m/s, 285° | - | - |
| 1777992847 | 13.89° C | 64% | 1003.5 hPa | 0 mm | 0.89 m/s, 281° | - | - |
| 1777992548 | 14.44° C | 65% | 1003.3 hPa | 0 mm | 0.89 m/s, 276° | - | - |
| 1777992248 | 13.89° C | 64% | 1003 hPa | 0 mm | 0.45 m/s, 287° | - | - |
| 1777991947 | 13.89° C | 65% | 1003.4 hPa | 0 mm | 0.45 m/s, 282° | - | - |
| 1777991647 | 13.33° C | 66% | 1003.5 hPa | 0 mm | 0.45 m/s, 331° | - | - |
| 1777991347 | 14.44° C | 64% | 1003.5 hPa | 0 mm | 0.89 m/s, 278° | - | - |
| 1777991047 | 13.33° C | 67% | 1003.3 hPa | 0 mm | 0.45 m/s, 298° | - | - |
| 1777990749 | 12.78° C | 67% | 1003.3 hPa | 0 mm | 0.89 m/s, 280° | - | - |
| 1777990448 | 12.78° C | 68% | 1003.4 hPa | 0 mm | 0.89 m/s, 276° | - | - |
| 1777990148 | 13.33° C | 69% | 1002.9 hPa | 0 mm | 0.89 m/s, 312° | - | - |
| 1777989847 | 13.33° C | 66% | 1002.9 hPa | 0 mm | 0.45 m/s, 299° | - | - |
| 1777989547 | 12.78° C | 67% | 1002.5 hPa | 0 mm | 0.89 m/s, 281° | - | - |
| 1777989247 | 12.78° C | 68% | 1002.1 hPa | 0 mm | 0.89 m/s, 281° | - | - |
* Rain latest hour (hover to see other rain measurements)
** Current wind speed in m/s (hover to see current wind gust speed)